Location: Drocourt
(49.0571°N, 1.7669°E)
Time: 10:28:44
(UTC+00:00)

Transit 4A - Pass Details

Date: 16 April 2024
Orbit: 871 x 971 km, 66.8° (Epoch: 24 May)

Event Time Altitude Azimuth Distance (km) Brightness Sun altitude
Rises 12:42:47 0° 182° (S) 3,541 11.5 50.0°
Reaches altitude 10° 12:45:32 10° 173° (S) 2,587 11.0 49.8°
Maximum altitude 12:50:47 33° 112° (ESE) 1,470 9.4 49.5°
Drops below altitude 10° 12:55:57 10° 51° (NE) 2,550 10.0 49.2°
Sets 12:58:38 0° 42° (NE) 3,483 10.5 49.0°
